PCSAT (NO-44) (26931 NORAD) Tracking and Keplerian Element Data

This shows tracking and keplerian element data for the satellite.

Feedback or suggestion? Click here.




ElementValue
Catalog26931
NamePCSAT (NO-44)
Epoch Orbit96636
Epoch Day94.08296562
Epoch Year2020
RAAN336.8981
Inclination67.0525
Eccentricity0.0005961
Argument of Perigee265.6012
Mean Anonmoly94.4409
Mean Motion14.30572042
Decay Rate-9E-08
L11 26931U 01043C 20094.08296562 -.00000009 00000-0 28144-4 0 9995
L22 26931 67.0525 336.8981 0005961 265.6012 94.4409 14.30572042966367

Live tracking and technical data element details for PCSAT (NO-44) (NORAD 26931). PCSAT (NO-44) can be tracked NOW for your location showing map with azimuth and elevation plus other details from your city location.

Track the satellite on the map from your city or location and see movement details for azimuth, elevation, latitude, longitude, range, height, and movement on the map or in text.







IsCatalogInMostPopularTable: catalog: 26931, numindb: 650
Update: records affected: 1



GetName: 26931 PCSAT (NO-44)

Hit Count: updated at: Thu, 09 Apr 2020 16:53:08 GMT